Dillon, MT

10:10 AM MDT on July 26, 2017 (GMT -0600)
Dillon

Weather History for KDLN - July, 2013

Change the Weather History Date:

Thursday, July 25, 2013

  Actual Average Record
Temperature  
Mean Temperature 71 °F 67 °F  
Max Temperature 90 °F 84 °F 98 °F (1931)
Min Temperature 51 °F 50 °F 37 °F (1948)
Degree Days  
Heating Degree Days 0    
Month to date heating degree days 0  
Since 1 June heating degree days 188  
Since 1 July heating degree days 0  
Cooling Degree Days 6    
Month to date cooling degree days 118  
Year to date cooling degree days 143  
Since 1 June cooling degree days 140  
Growing Degree Days 21 (Base 50)    
Moisture  
Dew Point 44 °F    
Average Humidity 42    
Maximum Humidity 66    
Minimum Humidity 17    
Precipitation  
Precipitation 0.01 in 0.03 in 0.89 in (1986)
Month to date precipitation 0.84 0.98  
Year to date precipitation 5.42 7.02  
Snow  
Snow 0.00 in - - ()
Snow Depth 0.00 in    
Sea Level Pressure  
Sea Level Pressure 30.02 in    
Wind  
Wind Speed 6 mph (East)    
Max Wind Speed 22 mph    
Max Gust Speed 35 mph    
Visibility 10 miles    
Events      
T = Trace of Precipitation, MM = Missing Value Source: NWS Daily Summary

Daily Weather History Graph

Daily Weather History Graph

Search for Another Location

Airport or City:

Trip Planner

Search our weather history database for the weather conditions in past years. The results will help you decide how hot, cold, wet, or windy it might be!

Date:

Astronomy

Jul. 25, 2013 Rise Set
Actual Time 6:07 AM MDT 9:05 PM MDT
Civil Twilight 5:32 AM MDT 9:40 PM MDT
Nautical Twilight 4:47 AM MDT 10:24 PM MDT
Astronomical Twilight 3:54 AM MDT 11:17 PM MDT
Moon 10:33 PM MDT (7/25) 9:54 AM MDT (7/25)
Length of Visible Light 16h 07m
Length of Day
14h 58m
Waning Gibbous, 88% of the Moon is Illuminated
Jul 25
Waning Gibbous
Jul 29
Last Quarter
Aug 6
New
Aug 14
First Quarter
Aug 20
Full

Hourly Weather History & Observations

Time (MDT) Temp. Dew Point Humidity Pressure Visibility Wind Dir Wind Speed Gust Speed Precip Events Conditions
12:53 AM 64.0 °F 33.1 °F 31% 29.97 in 10.0 mi ENE 9.2 mph - N/A   Clear
1:53 AM 59.0 °F 41.0 °F 51% 29.99 in 10.0 mi East 5.8 mph - N/A   Clear
2:53 AM 57.9 °F 43.0 °F 58% 30.00 in 10.0 mi East 6.9 mph - N/A   Clear
3:53 AM 60.1 °F 44.1 °F 55% 30.00 in 10.0 mi East 3.5 mph - N/A   Clear
4:53 AM 57.0 °F 45.0 °F 64% 30.04 in 10.0 mi East 6.9 mph - N/A   Clear
5:53 AM 54.0 °F 43.0 °F 66% 30.05 in 10.0 mi SSE 4.6 mph - N/A   Clear
6:53 AM 55.9 °F 44.1 °F 64% 30.06 in 10.0 mi South 4.6 mph - N/A   Clear
7:53 AM 64.9 °F 46.0 °F 50% 30.06 in 10.0 mi ENE 3.5 mph - N/A   Clear
8:53 AM 68.0 °F 46.9 °F 47% 30.07 in 10.0 mi NE 6.9 mph - N/A   Clear
9:53 AM 70.0 °F 48.9 °F 47% 30.09 in 10.0 mi NE 8.1 mph - N/A   Clear
10:53 AM 71.1 °F 48.9 °F 45% 30.08 in 10.0 mi NE 5.8 mph - N/A   Clear
11:53 AM 75.0 °F 51.1 °F 43% 30.08 in 10.0 mi Variable 3.5 mph - N/A   Clear
12:53 PM 77.0 °F 48.0 °F 36% 30.04 in 10.0 mi Calm Calm - N/A   Clear
1:53 PM 80.1 °F 52.0 °F 38% 30.02 in 10.0 mi NNW 4.6 mph - N/A   Clear
2:53 PM 86.0 °F 46.0 °F 25% 30.00 in 10.0 mi NNE 5.8 mph - N/A   Clear
3:53 PM 88.0 °F 39.0 °F 18% 29.97 in 10.0 mi NE 6.9 mph - N/A   Clear
4:53 PM 86.0 °F 51.1 °F 30% 29.97 in 10.0 mi West 3.5 mph - N/A   Clear
5:53 PM 84.0 °F 46.0 °F 26% 29.97 in 10.0 mi Calm Calm - N/A   Clear
6:53 PM 84.9 °F 35.1 °F 17% 29.96 in 10.0 mi Calm Calm - N/A   Partly Cloudy
7:53 PM 73.0 °F 44.1 °F 35% 29.98 in 10.0 mi SW 13.8 mph 23.0 mph 0.01 in   Clear
8:53 PM 75.0 °F 39.9 °F 28% 29.97 in 10.0 mi SSW 10.4 mph - N/A   Clear
9:53 PM 71.1 °F 39.0 °F 31% 30.00 in 10.0 mi South 11.5 mph - N/A   Clear
10:53 PM 66.9 °F 41.0 °F 39% 30.02 in 10.0 mi SSW 9.2 mph - N/A   Clear
11:53 PM 64.9 °F 39.0 °F 39% 30.02 in 10.0 mi SSW 8.1 mph - N/A   Clear